カタログに戻る

FENGYUN 1C DEB *

運用中SSO
NORAD 47036·DEBRIS·🇨🇳 China

打ち上げ May 10, 1999 から Taiyuan Satellite Launch Center

Loading…

次のパス (今後24時間)

TLE

最新Source: Space-Track

元期: Sep 14, 2026, 09:19 UTC

1 47036U 99025FBN 26257.38880495  .00000130  00000-0  86764-4 0  9991
2 47036  98.6869 299.1610 0068195  30.4280 343.0202 14.15318173638265

AllMySatでFENGYUN 1C DEB *をリアルタイム追跡

Download on the App Store